Content
SEND FEEDBACK

Daily
Averages
Monthly
Summary
Switzerland

ZERMATT, SWITZERLAND


Home > Europe > Switzerland
Elevation: 5282 feet     Latitude: 46 01N     Longitude: 007 45E

WEATHER
 
SELECT A DAY
Number of Records: 132,959;   Date Range: 7/1/96 - 7/20/14
 
SHARE

PRINT THIS DATA

[ ← Previous Day ]
WEATHER ALMANAC - MAY 25, 2013
[ Next Day → ]
[ °C ]   °F
Weather ElementAverageHighLow
Temperature9.8 °F12.2 °F (3:55 am)6.8 °F (6:55 am)
Dewpoint5.9 °F8.6 °F (3:55 am)3 °F (8:00 am)
Humidity82.2 %85 % (1:55 am)72 % (11:00 am)
Barometer29.61 in29.74 in (11:55 pm)29.53 in (7:55 am)
Wind Speed23.1 mph39.1 mph (9:55 pm)
Weather ElementAverage
Visibility0.1 mi
Wind DirectionENE (71.3 °)

Weather ElementTotal
Precipitation---
Heating Degree Days55.5 (Base 65)
Averaged from 31 records on May 25, 2013
WEATHER CONDITIONS BREAKOUT
WIND DIRECTION BREAKOUT
WEATHER BY HOUR - MAY 25, 2013
[ °C ]   °F
Local TimeTemperatureDewpointHumidityBarometerVisibilityWind DirectionWind SpeedGust SpeedPrecipitationEventsConditions
1:55 AM10.4 °F6.8 °F85 %29.65 in0.5 miSouth (190°)6.9 mphFogLight Freezing Fog
2:00 AM10.0 °F6.0 °F79 %0.0 miSouth (190°)6.9 mphFogHeavy Fog
2:55 AM10.4 °F6.8 °F85 %29.59 in0.5 miSouth (180°)3.5 mphFogLight Freezing Fog
3:55 AM12.2 °F8.6 °F85 %29.59 in0.1 miSouth (190°)4.6 mphFog-SnowLight Snow
4:55 AM10.4 °F6.8 °F85 %29.56 in0.1 miENE (60°)8.1 mphFog-SnowLight Snow
5:00 AM10.0 °F6.0 °F77 %0.0 miENE (60°)8.1 mphSnowLight Snow
5:55 AM8.6 °F3.2 °F79 %29.56 in0.1 miENE (60°)9.2 mphFog-SnowLight Snow
6:55 AM6.8 °F3.2 °F85 %29.56 in0.3 miNE (50°)11.5 mphFog-SnowLight Snow
7:55 AM6.8 °F3.2 °F85 %29.53 in0.1 miENE (60°)18.4 mphFog-SnowLight Snow
8:00 AM7.0 °F3.0 °F76 %0.0 miENE (60°)18.4 mph
8:55 AM6.8 °F3.2 °F85 %29.56 in0.1 miENE (60°)18.4 mphFog-SnowLight Snow
9:55 AM8.6 °F3.2 °F79 %29.56 in0.1 miENE (60°)21.9 mphFog-SnowLight Snow
10:55 AM8.6 °F5.0 °F85 %29.56 in0.1 miENE (60°)24.2 mphFog-SnowLight Snow
11:00 AM9.0 °F4.0 °F72 %0.0 miENE (60°)24.2 mphSnowLight Snow
11:55 AM8.6 °F5.0 °F85 %29.56 in0.3 miENE (60°)26.5 mphFog-SnowLight Snow
12:55 PM10.4 °F6.8 °F85 %29.59 in0.1 miENE (60°)20.7 mphFog-SnowLight Snow
1:55 PM10.4 °F6.8 °F85 %29.59 in0.1 miNE (50°)23.0 mphFog-SnowLight Snow
2:00 PM11.0 °F7.0 °F75 %0.0 miNE (50°)23.0 mphSnowLight Snow
2:55 PM10.4 °F6.8 °F85 %29.59 in0.1 miNE (50°)28.8 mphFog-SnowLight Snow
3:55 PM12.2 °F6.8 °F79 %29.59 in0.1 miNE (50°)27.6 mphFog-SnowLight Snow
4:55 PM10.4 °F6.8 °F85 %29.62 in0.1 miNE (50°)28.8 mphFog-SnowLight Snow
5:00 PM11.0 °F7.0 °F77 %0.0 miNE (50°)28.8 mphSnowLight Snow
5:55 PM10.4 °F6.8 °F85 %29.65 in0.1 miNE (50°)27.6 mphFog-SnowLight Snow
6:55 PM10.4 °F6.8 °F85 %29.65 in0.1 miENE (60°)35.7 mphFog-SnowLight Snow
7:55 PM10.4 °F6.8 °F85 %29.65 in0.1 miNE (50°)36.8 mphFog-SnowLight Snow
8:00 PM11.0 °F7.0 °F75 %0.0 miNE (50°)36.8 mphSnowLight Snow
8:55 PM10.4 °F6.8 °F85 %29.68 in0.1 miNE (50°)35.7 mphFog-SnowLight Snow
9:55 PM10.4 °F6.8 °F85 %29.68 in0.1 miNE (40°)39.1 mphFog-SnowLight Snow
10:55 PM10.4 °F6.8 °F85 %29.71 in0.1 miNE (50°)39.1 mphFog-SnowLight Snow
11:00 PM10.0 °F6.0 °F79 %0.0 miNE (50°)39.1 mphSnowLight Snow
11:55 PM10.4 °F6.8 °F85 %29.74 in0.1 miNE (50°)35.7 mphFog-SnowLight Snow
Hourly data recorded from LIMH, located miles away from Zermatt, Switzerland







STORIES FROM OUR PARTNERS